| time (UTC) | temp C | wind direction | speed KPH | gust KPH | rain 1hr cm | rain 24hr cm | rain mn cm | humidity % | barometer mb |
| 20260506124942 | -17 | 0.0 | 0.0 | 0.00 | 0.00 | 0.00 | 80 | 1011.9 | |
| 20260506124442 | -17 | 0.0 | 0.0 | 0.00 | 0.00 | 0.00 | 81 | 1011.8 | |
| 20260506123942 | -17 | 0.0 | 0.0 | 0.00 | 0.00 | 0.00 | 78 | 1011.8 | |
| 20260506123442 | -17 | 0.0 | 0.0 | 0.00 | 0.00 | 0.00 | 76 | 1011.7 | |
| 20260506122942 | -17 | 0.0 | 0.0 | 0.00 | 0.00 | 0.00 | 79 | 1011.5 | |
| 20260506122442 | -17 | 0.0 | 0.0 | 0.00 | 0.00 | 0.00 | 80 | 1011.5 | |
| 20260506121942 | -17 | 0.0 | 0.0 | 0.00 | 0.00 | 0.00 | 81 | 1011.6 | |
| 20260506121442 | -17 | 0.0 | 0.0 | 0.00 | 0.00 | 0.00 | 81 | 1011.6 | |
| 20260506120942 | -17 | 0.0 | 0.0 | 0.00 | 0.00 | 0.00 | 80 | 1011.6 | |
| 20260506120442 | -17 | 0.0 | 0.0 | 0.00 | 0.00 | 0.00 | 80 | 1011.4 | |
| 20260506115942 | -17 | 0.0 | 0.0 | 0.00 | 0.00 | 0.00 | 80 | 1011.4 | |
| 20260506115442 | -17 | 0.0 | 0.0 | 0.00 | 0.00 | 0.00 | 79 | 1011.2 | |
| 20260506114942 | -17 | 0.0 | 0.0 | 0.00 | 0.00 | 0.00 | 78 | 1011.2 | |
| 20260506114442 | -17 | 0.0 | 0.0 | 0.00 | 0.00 | 0.00 | 78 | 1010.9 | |
| 20260506113942 | -17 | 0.0 | 0.0 | 0.00 | 0.00 | 0.00 | 79 | 1011.0 | |
| 20260506113442 | -17 | 0.0 | 0.0 | 0.00 | 0.00 | 0.00 | 81 | 1010.9 | |
| 20260506112942 | -17 | 0.0 | 0.0 | 0.00 | 0.00 | 0.00 | 82 | 1010.6 | |
| 20260506112442 | -17 | 0.0 | 0.0 | 0.00 | 0.00 | 0.00 | 80 | 1010.6 | |
| 20260506111942 | -17 | 0.0 | 0.0 | 0.00 | 0.00 | 0.00 | 79 | 1010.5 | |
| 20260506111442 | -17 | 0.0 | 0.0 | 0.00 | 0.00 | 0.00 | 79 | 1010.5 | |
| 20260506110942 | -17 | 0.0 | 0.0 | 0.00 | 0.00 | 0.00 | 78 | 1010.4 | |
| 20260506110442 | -17 | 0.0 | 0.0 | 0.00 | 0.00 | 0.00 | 78 | 1010.5 | |
| 20260506105942 | -17 | 0.0 | 0.0 | 0.00 | 0.00 | 0.00 | 76 | 1010.4 | |
| 20260506105442 | -17 | 0.0 | 0.0 | 0.00 | 0.00 | 0.00 | 74 | 1010.4 | |
| 20260506104942 | -17 | 0.0 | 0.0 | 0.00 | 0.00 | 0.00 | 72 | 1010.4 | |
| 20260506104442 | -17 | 0.0 | 0.0 | 0.00 | 0.00 | 0.00 | 71 | 1010.3 | |
| 20260506103942 | -17 | 0.0 | 0.0 | 0.00 | 0.00 | 0.00 | 69 | 1010.4 | |
| 20260506103442 | -17 | 0.0 | 0.0 | 0.00 | 0.00 | 0.00 | 71 | 1010.4 | |
| 20260506102942 | -17 | 0.0 | 0.0 | 0.00 | 0.00 | 0.00 | 68 | 1010.3 | |
| 20260506102442 | -17 | 0.0 | 0.0 | 0.00 | 0.00 | 0.00 | 63 | 1010.4 | |
| 20260506101942 | -17 | 0.0 | 0.0 | 0.00 | 0.00 | 0.00 | 64 | 1010.3 | |
| 20260506101442 | -17 | 0.0 | 0.0 | 0.00 | 0.00 | 0.00 | 64 | 1010.1 | |
| 20260506100942 | -17 | 0.0 | 0.0 | 0.00 | 0.00 | 0.00 | 65 | 1010.1 | |
| 20260506100442 | -17 | 0.0 | 0.0 | 0.00 | 0.00 | 0.00 | 66 | 1010.1 | |
| 20260506095942 | -17 | 0.0 | 0.0 | 0.00 | 0.00 | 0.00 | 70 | 1010.1 | |
| 20260506095442 | -17 | 0.0 | 0.0 | 0.00 | 0.00 | 0.00 | 69 | 1010.2 | |
| 20260506094942 | -17 | 0.0 | 0.0 | 0.00 | 0.00 | 0.00 | 73 | 1010.2 | |
| 20260506094442 | -17 | 0.0 | 0.0 | 0.00 | 0.00 | 0.00 | 70 | 1010.2 | |
| 20260506093942 | -17 | 0.0 | 0.0 | 0.00 | 0.00 | 0.00 | 72 | 1010.2 | |
| 20260506093442 | -17 | 0.0 | 0.0 | 0.00 | 0.00 | 0.00 | 73 | 1010.2 | |
| 20260506092942 | -17 | 0.0 | 0.0 | 0.00 | 0.00 | 0.00 | 74 | 1010.2 | |
| 20260506092442 | -17 | 0.0 | 0.0 | 0.00 | 0.00 | 0.00 | 74 | 1010.2 | |
| 20260506091942 | -17 | 0.0 | 0.0 | 0.00 | 0.00 | 0.00 | 77 | 1010.0 | |
| 20260506091442 | -17 | 0.0 | 0.0 | 0.00 | 0.00 | 0.00 | 77 | 1009.9 | |
| 20260506090942 | -17 | 0.0 | 0.0 | 0.00 | 0.00 | 0.00 | 76 | 1010.0 | |
| 20260506090442 | -17 | 0.0 | 0.0 | 0.00 | 0.00 | 0.00 | 76 | 1010.0 | |
| 20260506085942 | -17 | 0.0 | 0.0 | 0.00 | 0.00 | 0.00 | 75 | 1009.9 | |
| 20260506085442 | -17 | 0.0 | 0.0 | 0.00 | 0.00 | 0.00 | 76 | 1010.0 | |
| 20260506084942 | -17 | 0.0 | 0.0 | 0.00 | 0.00 | 0.00 | 75 | 1009.9 | |
| 20260506084442 | -17 | 0.0 | 0.0 | 0.00 | 0.00 | 0.00 | 76 | 1009.9 | |
| 20260506083942 | -17 | 0.0 | 0.0 | 0.00 | 0.00 | 0.00 | 77 | 1009.9 | |
| 20260506083442 | -17 | 0.0 | 0.0 | 0.00 | 0.00 | 0.00 | 76 | 1010.0 | |
| 20260506082942 | -17 | 0.0 | 0.0 | 0.00 | 0.00 | 0.00 | 76 | 1010.0 | |
| 20260506082442 | -17 | 0.0 | 0.0 | 0.00 | 0.00 | 0.00 | 78 | 1009.9 | |
| 20260506081942 | -17 | 0.0 | 0.0 | 0.00 | 0.00 | 0.00 | 77 | 1009.9 | |
| 20260506081442 | -17 | 0.0 | 0.0 | 0.00 | 0.00 | 0.00 | 77 | 1009.8 | |
| 20260506080942 | -17 | 0.0 | 0.0 | 0.00 | 0.00 | 0.00 | 76 | 1009.9 | |
| 20260506080442 | -17 | 0.0 | 0.0 | 0.00 | 0.00 | 0.00 | 76 | 1009.8 | |
| 20260506073442 | -17 | 0.0 | 0.0 | 0.00 | 0.00 | 0.00 | 73 | 1009.7 | |
| 20260506072942 | -17 | 0.0 | 0.0 | 0.00 | 0.00 | 0.00 | 73 | 1009.7 | |
| 20260506072442 | -17 | 0.0 | 0.0 | 0.00 | 0.00 | 0.00 | 73 | 1009.8 | |
| 20260506071942 | -17 | 0.0 | 0.0 | 0.00 | 0.00 | 0.00 | 73 | 1009.8 | |
| 20260506071442 | -17 | 0.0 | 0.0 | 0.00 | 0.00 | 0.00 | 74 | 1009.9 | |
| 20260506070942 | -17 | 0.0 | 0.0 | 0.00 | 0.00 | 0.00 | 73 | 1009.9 | |
| 20260506070442 | -17 | 0.0 | 0.0 | 0.00 | 0.00 | 0.00 | 72 | 1009.9 | |
| 20260506062442 | -17 | 0.0 | 0.0 | 0.00 | 0.00 | 0.00 | 76 | 1009.7 | |
| 20260506061942 | -17 | 0.0 | 0.0 | 0.00 | 0.00 | 0.00 | 74 | 1009.7 | |
| 20260506061442 | -17 | 0.0 | 0.0 | 0.00 | 0.00 | 0.00 | 76 | 1009.7 | |
| 20260506060942 | -17 | 0.0 | 0.0 | 0.00 | 0.00 | 0.00 | 78 | 1009.7 | |
| 20260506060442 | -17 | 0.0 | 0.0 | 0.00 | 0.00 | 0.00 | 78 | 1009.7 | |
| 20260506050942 | -17 | 0.0 | 0.0 | 0.00 | 0.00 | 0.00 | 82 | 1010.0 | |
| 20260506050442 | -17 | 0.0 | 0.0 | 0.00 | 0.00 | 0.00 | 82 | 1009.9 | |
| 20260506044942 | -17 | 0.0 | 0.0 | 0.00 | 0.00 | 0.00 | 82 | 1009.9 | |
| 20260506044442 | -17 | 0.0 | 0.0 | 0.00 | 0.00 | 0.00 | 82 | 1009.9 | |
| 20260506043942 | -17 | 0.0 | 0.0 | 0.00 | 0.00 | 0.00 | 82 | 1010.0 | |
| 20260506043442 | -17 | 0.0 | 0.0 | 0.00 | 0.00 | 0.00 | 83 | 1009.9 | |
| 20260506042942 | -17 | 0.0 | 0.0 | 0.00 | 0.00 | 0.00 | 82 | 1009.9 | |
| 20260506042442 | -17 | 0.0 | 0.0 | 0.00 | 0.00 | 0.00 | 82 | 1010.0 | |
| 20260506041942 | -17 | 0.0 | 0.0 | 0.00 | 0.00 | 0.00 | 82 | 1009.8 | |
| 20260506041442 | -17 | 0.0 | 0.0 | 0.00 | 0.00 | 0.00 | 82 | 1009.7 | |
| 20260506040942 | -17 | 0.0 | 0.0 | 0.00 | 0.00 | 0.00 | 82 | 1009.7 | |
| 20260506040442 | -17 | 0.0 | 0.0 | 0.00 | 0.00 | 0.00 | 82 | 1009.7 | |
| 20260506035942 | -17 | 0.0 | 0.0 | 0.00 | 0.00 | 0.00 | 81 | 1009.8 | |
| 20260506035442 | -17 | 0.0 | 0.0 | 0.00 | 0.00 | 0.00 | 81 | 1009.9 | |
| 20260506034942 | -17 | 0.0 | 0.0 | 0.00 | 0.00 | 0.00 | 81 | 1009.9 | |
| 20260506034442 | -17 | 0.0 | 0.0 | 0.00 | 0.00 | 0.00 | 80 | 1010.0 | |
| 20260506033942 | -17 | 0.0 | 0.0 | 0.00 | 0.00 | 0.00 | 80 | 1010.1 | |
| 20260506033442 | -17 | 0.0 | 0.0 | 0.00 | 0.00 | 0.00 | 80 | 1010.1 | |
| 20260506032942 | -17 | 0.0 | 0.0 | 0.00 | 0.00 | 0.00 | 80 | 1010.2 | |
| 20260506032442 | -17 | 0.0 | 0.0 | 0.00 | 0.00 | 0.00 | 80 | 1010.2 | |
| 20260506031942 | -17 | 0.0 | 0.0 | 0.00 | 0.00 | 0.00 | 80 | 1010.3 | |
| 20260506031442 | -17 | 0.0 | 0.0 | 0.00 | 0.00 | 0.00 | 80 | 1010.3 | |
| 20260506030942 | -17 | 0.0 | 0.0 | 0.00 | 0.00 | 0.00 | 80 | 1010.3 | |
| 20260506030442 | -17 | 0.0 | 0.0 | 0.00 | 0.00 | 0.00 | 80 | 1010.5 | |
| 20260506025942 | -17 | 0.0 | 0.0 | 0.00 | 0.00 | 0.00 | 80 | 1010.4 | |
| 20260506025442 | -17 | 0.0 | 0.0 | 0.00 | 0.00 | 0.00 | 80 | 1010.7 | |
| 20260506024942 | -17 | 0.0 | 0.0 | 0.00 | 0.00 | 0.00 | 80 | 1010.8 | |
| 20260506024442 | -17 | 0.0 | 0.0 | 0.00 | 0.00 | 0.00 | 80 | 1010.8 | |
| 20260506023942 | -17 | 0.0 | 0.0 | 0.00 | 0.00 | 0.00 | 81 | 1010.8 | |
| 20260506023442 | -17 | 0.0 | 0.0 | 0.00 | 0.00 | 0.00 | 80 | 1010.9 | |
| 20260506022942 | -17 | 0.0 | 0.0 | 0.00 | 0.00 | 0.00 | 79 | 1010.8 | |
| 20260506022442 | -17 | 0.0 | 0.0 | 0.00 | 0.00 | 0.00 | 79 | 1010.8 | |
| 20260506021942 | -17 | 0.0 | 0.0 | 0.00 | 0.00 | 0.00 | 80 | 1010.7 | |
| 20260506021442 | -17 | 0.0 | 0.0 | 0.00 | 0.00 | 0.00 | 80 | 1010.7 | |
| 20260506020942 | -17 | 0.0 | 0.0 | 0.00 | 0.00 | 0.00 | 80 | 1010.7 | |
| 20260506020442 | -17 | 0.0 | 0.0 | 0.00 | 0.00 | 0.00 | 78 | 1010.9 | |
| 20260506015942 | -17 | 0.0 | 0.0 | 0.00 | 0.00 | 0.00 | 78 | 1010.8 | |
| 20260506015442 | -17 | 0.0 | 0.0 | 0.00 | 0.00 | 0.00 | 78 | 1010.9 | |
| 20260506014942 | -17 | 0.0 | 0.0 | 0.00 | 0.00 | 0.00 | 78 | 1011.0 | |
| 20260506014442 | -17 | 0.0 | 0.0 | 0.00 | 0.00 | 0.00 | 78 | 1011.2 | |
| 20260506013942 | -17 | 0.0 | 0.0 | 0.00 | 0.00 | 0.00 | 78 | 1011.2 | |
| 20260506013442 | -17 | 0.0 | 0.0 | 0.00 | 0.00 | 0.00 | 77 | 1011.3 | |
| 20260506012942 | -17 | 0.0 | 0.0 | 0.00 | 0.00 | 0.00 | 77 | 1011.5 | |
| 20260506012442 | -17 | 0.0 | 0.0 | 0.00 | 0.00 | 0.00 | 77 | 1011.7 | |
| 20260506011942 | -17 | 0.0 | 0.0 | 0.00 | 0.00 | 0.00 | 78 | 1011.6 | |
| 20260506011442 | -17 | 0.0 | 0.0 | 0.00 | 0.00 | 0.00 | 79 | 1011.7 | |
| 20260506010942 | -17 | 0.0 | 0.0 | 0.00 | 0.00 | 0.00 | 79 | 1011.7 | |
| 20260506010442 | -17 | 0.0 | 0.0 | 0.00 | 0.00 | 0.00 | 78 | 1011.6 | |
| 20260506005942 | -17 | 0.0 | 0.0 | 0.00 | 0.00 | 0.00 | 77 | 1011.5 | |
| 20260506005442 | -17 | 0.0 | 0.0 | 0.00 | 0.00 | 0.00 | 76 | 1011.6 | |
| 20260506004942 | -17 | 0.0 | 0.0 | 0.00 | 0.00 | 0.00 | 75 | 1011.6 | |
| 20260506004442 | -17 | 0.0 | 0.0 | 0.00 | 0.00 | 0.00 | 75 | 1011.8 | |
| 20260506003942 | -17 | 0.0 | 0.0 | 0.00 | 0.00 | 0.00 | 76 | 1011.9 | |
| 20260506003442 | -17 | 0.0 | 0.0 | 0.00 | 0.00 | 0.00 | 76 | 1012.1 | |
| 20260506002942 | -17 | 0.0 | 0.0 | 0.00 | 0.00 | 0.00 | 75 | 1012.2 | |
| 20260506002442 | -17 | 0.0 | 0.0 | 0.00 | 0.00 | 0.00 | 75 | 1011.9 | |
| 20260506001942 | -17 | 0.0 | 0.0 | 0.00 | 0.00 | 0.00 | 75 | 1011.8 | |
| 20260506001442 | -17 | 0.0 | 0.0 | 0.00 | 0.00 | 0.00 | 74 | 1011.9 | |
| 20260506000942 | -17 | 0.0 | 0.0 | 0.00 | 0.00 | 0.00 | 73 | 1011.9 | |
| 20260506000442 | -17 | 0.0 | 0.0 | 0.00 | 0.00 | 0.00 | 74 | 1012.1 | |
| 20260505235942 | -17 | 0.0 | 0.0 | 0.00 | 0.00 | 0.00 | 75 | 1012.0 | |
| 20260505235442 | -17 | 0.0 | 0.0 | 0.00 | 0.00 | 0.00 | 76 | 1012.0 | |
| 20260505234942 | -17 | 0.0 | 0.0 | 0.00 | 0.00 | 0.00 | 76 | 1012.1 | |
| 20260505234442 | -17 | 0.0 | 0.0 | 0.00 | 0.00 | 0.00 | 76 | 1012.0 | |
| 20260505233942 | -17 | 0.0 | 0.0 | 0.00 | 0.00 | 0.00 | 75 | 1012.2 | |
| 20260505233442 | -17 | 0.0 | 0.0 | 0.00 | 0.00 | 0.00 | 75 | 1012.2 | |
| 20260505232942 | -17 | 0.0 | 0.0 | 0.00 | 0.00 | 0.00 | 74 | 1012.3 | |
| 20260505232442 | -17 | 0.0 | 0.0 | 0.00 | 0.00 | 0.00 | 73 | 1012.4 | |
| 20260505231942 | -17 | 0.0 | 0.0 | 0.00 | 0.00 | 0.00 | 73 | 1012.5 | |
| 20260505231442 | -17 | 0.0 | 0.0 | 0.00 | 0.00 | 0.00 | 74 | 1012.5 | |
| 20260505230942 | -17 | 0.0 | 0.0 | 0.00 | 0.00 | 0.00 | 73 | 1012.5 | |
| 20260505230442 | -17 | 0.0 | 0.0 | 0.00 | 0.00 | 0.00 | 74 | 1012.6 | |
| 20260505225942 | -17 | 0.0 | 0.0 | 0.00 | 0.00 | 0.00 | 73 | 1012.5 | |
| 20260505225442 | -17 | 0.0 | 0.0 | 0.00 | 0.00 | 0.00 | 74 | 1012.6 | |
| 20260505224942 | -17 | 0.0 | 0.0 | 0.00 | 0.00 | 0.00 | 74 | 1012.5 | |
| 20260505224442 | -17 | 0.0 | 0.0 | 0.00 | 0.00 | 0.00 | 74 | 1012.5 | |
| 20260505223942 | -17 | 0.0 | 0.0 | 0.00 | 0.00 | 0.00 | 75 | 1012.5 | |
| 20260505223442 | -17 | 0.0 | 0.0 | 0.00 | 0.00 | 0.00 | 76 | 1012.6 | |
| 20260505222942 | -17 | 0.0 | 0.0 | 0.00 | 0.00 | 0.00 | 74 | 1012.6 | |
| 20260505222442 | -17 | 0.0 | 0.0 | 0.00 | 0.00 | 0.00 | 75 | 1012.5 | |
| 20260505221942 | -17 | 0.0 | 0.0 | 0.00 | 0.00 | 0.00 | 74 | 1012.5 | |
| 20260505221442 | -17 | 0.0 | 0.0 | 0.00 | 0.00 | 0.00 | 74 | 1012.5 | |
| 20260505220942 | -17 | 0.0 | 0.0 | 0.00 | 0.00 | 0.00 | 74 | 1012.6 | |
| 20260505220442 | -17 | 0.0 | 0.0 | 0.00 | 0.00 | 0.00 | 73 | 1012.6 | |
| 20260505215942 | -17 | 0.0 | 0.0 | 0.00 | 0.00 | 0.00 | 74 | 1012.8 | |
| 20260505215442 | -17 | 0.0 | 0.0 | 0.00 | 0.00 | 0.00 | 74 | 1012.7 | |
| 20260505214942 | -17 | 0.0 | 0.0 | 0.00 | 0.00 | 0.00 | 75 | 1012.6 | |
| 20260505214442 | -17 | 0.0 | 0.0 | 0.00 | 0.00 | 0.00 | 75 | 1012.7 | |
| 20260505213942 | -17 | 0.0 | 0.0 | 0.00 | 0.00 | 0.00 | 75 | 1012.7 | |
| 20260505213442 | -17 | 0.0 | 0.0 | 0.00 | 0.00 | 0.00 | 76 | 1012.7 | |
| 20260505212942 | -17 | 0.0 | 0.0 | 0.00 | 0.00 | 0.00 | 76 | 1012.8 | |
| 20260505212442 | -17 | 0.0 | 0.0 | 0.00 | 0.00 | 0.00 | 76 | 1012.8 | |
| 20260505211942 | -17 | 0.0 | 0.0 | 0.00 | 0.00 | 0.00 | 76 | 1012.9 | |
| 20260505211442 | -17 | 0.0 | 0.0 | 0.00 | 0.00 | 0.00 | 76 | 1012.9 | |
| 20260505210942 | -17 | 0.0 | 0.0 | 0.00 | 0.00 | 0.00 | 75 | 1012.8 | |
| 20260505210442 | -17 | 0.0 | 0.0 | 0.00 | 0.00 | 0.00 | 74 | 1012.7 | |
| 20260505205942 | -17 | 0.0 | 0.0 | 0.00 | 0.00 | 0.00 | 74 | 1012.8 | |
| 20260505205442 | -17 | 0.0 | 0.0 | 0.00 | 0.00 | 0.00 | 72 | 1012.8 | |
| 20260505204942 | -17 | 0.0 | 0.0 | 0.00 | 0.00 | 0.00 | 73 | 1012.9 | |
| 20260505204442 | -17 | 0.0 | 0.0 | 0.00 | 0.00 | 0.00 | 75 | 1012.9 | |
| 20260505203942 | -17 | 0.0 | 0.0 | 0.00 | 0.00 | 0.00 | 77 | 1012.9 | |
| 20260505203442 | -17 | 0.0 | 0.0 | 0.00 | 0.00 | 0.00 | 76 | 1012.9 | |
| 20260505202942 | -17 | 0.0 | 0.0 | 0.00 | 0.00 | 0.00 | 76 | 1012.7 | |
| 20260505202442 | -17 | 0.0 | 0.0 | 0.00 | 0.00 | 0.00 | 76 | 1012.7 | |
| 20260505201942 | -17 | 0.0 | 0.0 | 0.00 | 0.00 | 0.00 | 75 | 1012.6 | |
| 20260505201442 | -17 | 0.0 | 0.0 | 0.00 | 0.00 | 0.00 | 76 | 1012.7 | |
| 20260505200942 | -17 | 0.0 | 0.0 | 0.00 | 0.00 | 0.00 | 76 | 1012.5 | |
| 20260505200442 | -17 | 0.0 | 0.0 | 0.00 | 0.00 | 0.00 | 76 | 1012.6 | |
| 20260505195942 | -17 | 0.0 | 0.0 | 0.00 | 0.00 | 0.00 | 76 | 1012.4 | |
| 20260505195442 | -17 | 0.0 | 0.0 | 0.00 | 0.00 | 0.00 | 75 | 1012.4 | |
| 20260505194942 | -17 | 0.0 | 0.0 | 0.00 | 0.00 | 0.00 | 75 | 1012.4 | |
| 20260505194442 | -17 | 0.0 | 0.0 | 0.00 | 0.00 | 0.00 | 75 | 1012.4 | |
| 20260505193942 | -17 | 0.0 | 0.0 | 0.00 | 0.00 | 0.00 | 75 | 1012.3 | |
| 20260505193442 | -17 | 0.0 | 0.0 | 0.00 | 0.00 | 0.00 | 74 | 1012.3 | |
| 20260505192942 | -17 | 0.0 | 0.0 | 0.00 | 0.00 | 0.00 | 73 | 1012.3 | |
| 20260505192442 | -17 | 0.0 | 0.0 | 0.00 | 0.00 | 0.00 | 72 | 1012.2 | |
| 20260505191942 | -17 | 0.0 | 0.0 | 0.00 | 0.00 | 0.00 | 72 | 1012.1 | |
| 20260505191442 | -17 | 0.0 | 0.0 | 0.00 | 0.00 | 0.00 | 73 | 1012.0 | |
| 20260505190942 | -17 | 0.0 | 0.0 | 0.00 | 0.00 | 0.00 | 73 | 1012.0 | |
| 20260505190442 | -17 | 0.0 | 0.0 | 0.00 | 0.00 | 0.00 | 73 | 1012.0 | |
| 20260505185942 | -17 | 0.0 | 0.0 | 0.00 | 0.00 | 0.00 | 73 | 1011.8 | |
| 20260505185442 | -17 | 0.0 | 0.0 | 0.00 | 0.00 | 0.00 | 72 | 1011.8 | |
| 20260505184942 | -17 | 0.0 | 0.0 | 0.00 | 0.00 | 0.00 | 71 | 1011.7 | |
| 20260505184442 | -17 | 0.0 | 0.0 | 0.00 | 0.00 | 0.00 | 70 | 1011.8 | |
| 20260505183942 | -17 | 0.0 | 0.0 | 0.00 | 0.00 | 0.00 | 70 | 1011.7 | |
| 20260505183442 | -17 | 0.0 | 0.0 | 0.00 | 0.00 | 0.00 | 70 | 1011.7 | |
| 20260505182942 | -17 | 0.0 | 0.0 | 0.00 | 0.00 | 0.00 | 69 | 1011.7 | |
| 20260505182442 | -17 | 0.0 | 0.0 | 0.00 | 0.00 | 0.00 | 68 | 1011.7 | |
| 20260505181942 | -17 | 0.0 | 0.0 | 0.00 | 0.00 | 0.00 | 68 | 1011.8 | |
| 20260505181442 | -17 | 0.0 | 0.0 | 0.00 | 0.00 | 0.00 | 67 | 1011.8 | |
| 20260505180942 | -17 | 0.0 | 0.0 | 0.00 | 0.00 | 0.00 | 67 | 1011.7 | |
| 20260505180442 | -17 | 0.0 | 0.0 | 0.00 | 0.00 | 0.00 | 66 | 1011.5 | |
| 20260505175942 | -17 | 0.0 | 0.0 | 0.00 | 0.00 | 0.00 | 66 | 1011.6 | |
| 20260505175442 | -17 | 0.0 | 0.0 | 0.00 | 0.00 | 0.00 | 65 | 1011.5 | |
| 20260505174942 | -17 | 0.0 | 0.0 | 0.00 | 0.00 | 0.00 | 65 | 1011.7 | |
| 20260505174442 | -17 | 0.0 | 0.0 | 0.00 | 0.00 | 0.00 | 65 | 1011.8 | |
| 20260505173942 | -17 | 0.0 | 0.0 | 0.00 | 0.00 | 0.00 | 67 | 1011.7 | |
| 20260505173442 | -17 | 0.0 | 0.0 | 0.00 | 0.00 | 0.00 | 68 | 1011.7 | |
| 20260505172942 | -17 | 0.0 | 0.0 | 0.00 | 0.00 | 0.00 | 68 | 1011.5 | |
| 20260505172442 | -17 | 0.0 | 0.0 | 0.00 | 0.00 | 0.00 | 68 | 1011.6 | |
| 20260505171942 | -17 | 0.0 | 0.0 | 0.00 | 0.00 | 0.00 | 70 | 1011.5 | |
| 20260505171442 | -17 | 0.0 | 0.0 | 0.00 | 0.00 | 0.00 | 69 | 1011.4 | |
| 20260505170942 | -17 | 0.0 | 0.0 | 0.00 | 0.00 | 0.00 | 70 | 1011.4 | |
| 20260505170442 | -17 | 0.0 | 0.0 | 0.00 | 0.00 | 0.00 | 70 | 1011.4 | |
| 20260505165942 | -17 | 0.0 | 0.0 | 0.00 | 0.00 | 0.00 | 70 | 1011.4 | |
| 20260505165442 | -17 | 0.0 | 0.0 | 0.00 | 0.00 | 0.00 | 68 | 1011.5 | |
| 20260505164942 | -17 | 0.0 | 0.0 | 0.00 | 0.00 | 0.00 | 68 | 1011.6 | |
| 20260505164442 | -17 | 0.0 | 0.0 | 0.00 | 0.00 | 0.00 | 68 | 1011.3 | |
| 20260505163942 | -17 | 0.0 | 0.0 | 0.00 | 0.00 | 0.00 | 68 | 1011.5 | |
| 20260505163442 | -17 | 0.0 | 0.0 | 0.00 | 0.00 | 0.00 | 66 | 1011.6 | |
| 20260505162942 | -17 | 0.0 | 0.0 | 0.00 | 0.00 | 0.00 | 67 | 1011.5 | |
| 20260505162442 | -17 | 0.0 | 0.0 | 0.00 | 0.00 | 0.00 | 66 | 1011.6 | |
| 20260505161942 | -17 | 0.0 | 0.0 | 0.00 | 0.00 | 0.00 | 65 | 1011.6 | |
| 20260505161442 | -17 | 0.0 | 0.0 | 0.00 | 0.00 | 0.00 | 64 | 1011.8 | |
| 20260505160942 | -17 | 0.0 | 0.0 | 0.00 | 0.00 | 0.00 | 63 | 1011.8 | |
| 20260505160442 | -17 | 0.0 | 0.0 | 0.00 | 0.00 | 0.00 | 62 | 1011.9 | |
| 20260505152942 | -17 | 0.0 | 0.0 | 0.00 | 0.00 | 0.00 | 62 | 1011.6 | |
| 20260505152442 | -17 | 0.0 | 0.0 | 0.00 | 0.00 | 0.00 | 63 | 1011.6 | |
| 20260505151942 | -17 | 0.0 | 0.0 | 0.00 | 0.00 | 0.00 | 63 | 1011.7 | |
| 20260505151442 | -17 | 0.0 | 0.0 | 0.00 | 0.00 | 0.00 | 64 | 1011.5 | |
| 20260505150942 | -17 | 0.0 | 0.0 | 0.00 | 0.00 | 0.00 | 67 | 1011.5 | |
| 20260505150442 | -17 | 0.0 | 0.0 | 0.00 | 0.00 | 0.00 | 70 | 1011.4 | |
| 20260505140442 | -17 | 0.0 | 0.0 | 0.00 | 0.00 | 0.00 | 58 | 1011.2 |